Location: Unspecified
(42.3650°N, 71.1030°W)
Time: 08:29:32
(UTC+00:00)

Vanguard 2 - Pass Details

Date: 25 June 2024
Orbit: 552 x 2913 km, 32.9° (Epoch: 13 July)

Event Time Altitude Azimuth Distance (km) Brightness Sun altitude
Exits shadow 06:23:20 - 156° (SSE) 4,546 11.1 -20.6°
Reaches altitude 10° 06:25:40 10° 145° (SE) 4,508 11.1 -20.4°
Maximum altitude 06:29:22 12° 128° (SE) 4,666 11.4 -20.2°
Drops below altitude 10° 06:33:27 10° 111° (ESE) 5,092 11.7 -19.8°
Sets 06:42:27 0° 86° (E) 6,564 12.7 -19.1°
